Regional Weather Roundup
Issued by NWS

Home | Current Version | Previous Version | Text Only | Print | Product List | Glossary On
Versions: 1 2 3 4 5 6 7 8 9 10 11 12 13 14 15 16 17 18 19 20 21 22 23 24 25 26 27 28 29 30 31 32 33 34 35 36 37 38 39 40 41 42 43 44 45 46 47 48 49 50
000
ASUS44 KLIX 081613
RWRLA
LOUISIANA WEATHER ROUNDUP
NATIONAL WEATHER SERVICE NEW ORLEANS LA
1000 AM CST THU DEC 08 2016

NOTE: "FAIR" INDICATES FEW OR NO CLOUDS BELOW 12,000 FEET WITH NO
      SIGNIFICANT WEATHER AND/OR OBSTRUCTIONS TO VISIBILITY.
      SKY/WX - SKY CONDITION AND SIGNIFICANT WEATHER.
      TMP - AIR TEMPERATURE.    DP   - DEWPOINT TEMPERATURE.
      RH  - RELATIVE HUMIDITY.  PRES - PRESSURE.
      HX  - HEAT INDEX.         WCI  - WIND CHILL INDEX.

*  THESE STATIONS ARE NOT NWS OR FAA STATIONS AND ARE NOT UNDER
   NWS QUALITY CONTROL.

LAZ040-048-061>063-065-066-069-081700-
SOUTHEAST LOUISIANA

CITY           SKY/WX    TMP DP  RH WIND       PRES   REMARKS
N.O. AUDUBON   NOT AVBL
N.O. INTL ARPT LGT RAIN  51  49  92 N16G25    30.35R
N.O. LAKEFRONT LGT RAIN  51  49  92 N22G30    30.35R
N.O. DOWNTOWN* LGT RAIN  51  47  86 N12G18    30.35R
RESERVE*       CLOUDY    52  50  92 N15       30.36R
SLIDELL        CLOUDY    49  46  90 N15       30.36R
BATON ROUGE    CLOUDY    48  43  82 NE18G25   30.38R
BOOTHVILLE     CLOUDY    53  51  93 NE16G25   30.31R
BELLE CHASSE   LGT RAIN  51  48  89 N12G18    30.33S FOG
BOGALUSA*      CLOUDY    49  42  78 N9        30.41R
GALLIANO*      CLOUDY    55  47  73 N10G18    30.32R
NEW ROADS*     CLOUDY    46  44  92 N15       30.42R
GONZALES*      CLOUDY    49  46  88 NE15G22   30.35S
HAMMOND*       DRIZZLE   46  43  87 N10G16    30.38S
HOUMA*         CLOUDY    52  48  87 N16G25    30.33
PORT FOURCHON* CLOUDY    57  52  82 NE23      30.30R

$$

LAZ041-044-053-054-081700-
SOUTHWEST LOUISIANA

CITY           SKY/WX    TMP DP  RH WIND       PRES   REMARKS
LAKE CHARLES   CLOUDY    47  44  90 NE20G30   30.39R
LAFAYETTE      CLOUDY    48  45  89 N17G25    30.38R
PATTERSON      CLOUDY   N/A N/A N/A NE15G24   30.32S
SALT POINT     NOT AVBL
NEW IBERIA     CLOUDY    50  44  80 N17G26    30.37R
CHENAULT AIRPK CLOUDY    46  45  93 NE13G29   30.39

$$

LAZ027-028-081700-
CENTRAL LOUISIANA

CITY           SKY/WX    TMP DP  RH WIND       PRES   REMARKS
FORT POLK      CLOUDY    43  38  83 N13       30.44R
ALEXANDRIA INT CLOUDY    44  34  67 N18G26    30.46R
ALEXANDRIA     CLOUDY    45  35  68 N8        30.47R

$$

LAZ001-002-081700-
NORTHWEST LOUISIANA

CITY           SKY/WX    TMP DP  RH WIND       PRES   REMARKS
SHREVEPORT     CLOUDY    42  32  67 N14G24    30.55R
BARKSDALE AFB  CLOUDY    42  32  70 N9        30.55R
DTN SHREVEPORT CLOUDY    42  32  67 N9        30.56R

$$

LAZ014-016-081700-
NORTHEAST LOUISIANA

CITY           SKY/WX    TMP DP  RH WIND       PRES   REMARKS
MONROE         CLOUDY    43  28  55 N17       30.52R
TALLULAH       CLOUDY    43  29  57 N20G25    30.50R

$$




USA.gov is the U.S. government's official web portal to all federal, state and local government web resources and services.